[Iaude] MPEC U88: 2023 UJ1 [a=1.56,e=0.34,i=25.5,H=26.1]
    mpec at marsden.cfa.harvard.edu 
    mpec at marsden.cfa.harvard.edu
       
    Wed Oct 18 11:55:05 EDT 2023
    
    
  
M.P.E.C. 2023-U88                              Issued 2023 October 18, 15:53 UT
     The Minor Planet Electronic Circulars contain information on unusual
         minor planets, routine data on comets and natural satellites,
         and occasional editorial announcements.  They are published
    on behalf of Division F of the International Astronomical Union by the
          Minor Planet Center, Smithsonian Astrophysical Observatory,
                          Cambridge, MA 02138, U.S.A.
			  
             Prepared using the Tamkin Foundation Computer Network
                              MPC at CFA.HARVARD.EDU
            URL https://www.minorplanetcenter.net/    ISSN 1523-6714
                                    2023 UJ1                                    
Observations:
     K23U01J* C2023 10 16.86278500 40 06.26 +22 06 31.3          19.2 RoEU088K88
     K23U01J  C2023 10 16.86580600 40 10.44 +22 04 31.4          19.2 RoEU088K88
     K23U01J  C2023 10 16.86882900 40 14.51 +22 02 31.8          19.2 RoEU088K88
     K23U01J  C2023 10 17.38732200 52 40.770+15 59 06.26         19.1 GVEU088U68
     K23U01J  C2023 10 17.39066400 52 45.419+15 56 39.28         19.1 GVEU088U68
     K23U01J  C2023 10 17.40857900 53 10.232+15 43 31.87         19.2 GVEU088U68
     K23U01J  C2023 10 17.41192100 53 14.857+15 41 04.96         19.2 GVEU088U68
     K23U01J KC2023 10 17.81973001 03 23.72 +10 36 12.5          18.7 GXEU088595
     K23U01J IC2023 10 17.84021601 03 52.14 +10 20 41.1          18.8 GXEU088595
     K23U01J KC2023 10 17.84538701 03 59.31 +10 16 45.3          19.2 GXEU088595
     K23U01J KC2023 10 17.85055701 04 06.45 +10 12 49.4                XEU088595
     K23U01J KC2023 10 17.87197201 04 34.59 +09 56 26.8          19.0 RoEU088K88
     K23U01J KC2023 10 17.87539601 04 39.29 +09 53 50.3          19.0 RoEU088K88
     K23U01J KC2023 10 17.87882301 04 43.97 +09 51 14.1          19.1 RoEU088K88
     K23U01J hC2023 10 17.91512801 05 35.12 +09 23 40.5          19.1 GVEU088L01
     K23U01J hC2023 10 17.91635601 05 36.77 +09 22 44.1          18.9 GVEU088L01
     K23U01J hC2023 10 17.91739501 05 38.19 +09 21 56.7          19.2 GVEU088L01
     K23U01J hC2023 10 17.91852801 05 39.70 +09 21 04.4          19.0 GVEU088L01
     K23U01J hC2023 10 17.91966201 05 41.32 +09 20 11.6          19.3 GVEU088L01
     K23U01J KC2023 10 18.16054101 11 31.58 +06 15 20.2          19.3 VuEU088H21
     K23U01J KC2023 10 18.16138701 11 32.73 +06 14 41.0          19.5 VuEU088H21
     K23U01J KC2023 10 18.16232601 11 34.01 +06 13 57.6          19.5 VuEU088H21
     K23U01J KC2023 10 18.16326501 11 35.28 +06 13 14.1          19.6 VuEU088H21
Observer details:
595 Farra d'Isonzo.  Observers G. Panterotto, E. Pettarin.  Measurer E.
    Pettarin.  0.61-m f/4.5 reflector + CCD.
H21 Astronomical Research Observatory, Westfield.  Observer R. Holmes.
    Measurers T. Linder, R. Holmes, L. Horn.  0.76-m f/3.0 astrograph + CCD.
K88 GINOP-KHK, Piszkesteto.  Observer N. O. Szabo.  Measurer K. Sarneczky.
    0.60-m Schmidt + CCD.
L01 Visnjan Observatory, Tican.  Observer K. Korlevic.  1.0-m f/2.9 reflector
    + CCD.
U68 JPL SynTrack Robotic Telescope, Auberry.  Observers N. Saini, C. Zhai, R.
    Trahan, M. Zhan, M. Shao.  0.28-m Reflector + CCD.
Orbital elements:
2023 UJ1                                                 Earth MOID = 0.0338 AU
Epoch 2023 Sept. 13.0 TT = JDT 2460200.5                Veres                   
M 337.94564              (2000.0)            P               Q                  
n   0.50507995     Peri.  189.39826     +0.84202276     -0.51033080             
a   1.5615742      Node   203.92807     +0.51869429     +0.85495604             
e   0.3422101      Incl.   25.53191     +0.14816850     -0.09280433             
P   1.95           H   26.10          G   0.15           U   8                  
Residuals in seconds of arc
231016 K88  0.1+  1.0-    231017 595  0.2-  0.7+    231017 L01  0.6-  0.5+
231016 K88  0.1-  0.7+    231017 595  0.1+  0.4+    231017 L01  1.2-  0.1+
231016 K88 (1.9-  2.9+)   231017 595  0.1+  0.0     231017 L01  0.2-  0.7-
231017 U68  0.0   0.4+    231017 K88  0.4+  0.1-    231018 H21  0.2-  0.1-
231017 U68  0.4+  0.1+    231017 K88  0.2+  0.1-    231018 H21  0.1-  0.2-
231017 U68  0.0   0.4+    231017 K88  0.2-  0.3+    231018 H21  0.0   0.1-
231017 U68  0.3-  0.6+    231017 L01  0.2-  0.3+    231018 H21  0.1-  0.2-
231017 595  0.4-  0.3+    231017 L01  0.6-  0.3+
Ephemeris:
2023 UJ1                 a,e,i = 1.56, 0.34, 26                  q = 1.0272
Date    TT    R. A. (2000) Decl.     Delta      r    Elong.  Phase     V
2023 09 18    20 19 13.6 +64 15 19   0.2525  1.0944   104.1    63.0    25.5
...
2023 10 03    21 06 04.2 +63 00 00   0.1339  1.0534   109.6    63.5    24.1
...
2023 10 11    22 34 24.4 +55 42 35   0.07104 1.0388   122.9    53.9    22.4
...
2023 10 17    00 43 22.3 +20 35 37   0.03603 1.0316   164.6    14.9    19.8
2023 10 18    01 07 34.8 +08 21 49   0.03434 1.0308   174.6     5.2    19.3
2023 10 19    01 31 11.6 -04 25 46   0.03471 1.0300   165.9    13.6    19.7
...
2023 10 25    03 22 12.8 -47 07 44   0.06620 1.0273   117.9    58.8    22.4
...
2023 11 02    04 33 49.4 -57 49 35   0.1281  1.0290   103.1    70.0    24.2
...
2023 11 17    05 18 17.6 -60 48 59   0.2447  1.0484    97.3    69.3    25.6
M. P. C. Staff               (C) Copyright 2023 MPC           M.P.E.C. 2023-U88
    
    
More information about the Iaude
mailing list